Location: South Range
(44.4886°N, 65.7879°W)
Time: 10:50:34
(UTC-03:00)

Iridium 56 - Visible Passes

Search period start: 19 September 2014 00:00
Search period end: 29 September 2014 00:00
Orbit: 776 x 779 km, 86.4° (Epoch: 18 September)

Date Brightness Start Highest point End Pass type
(mag) Time Alt. Az. Time Alt. Az. Time Alt. Az.
19 Sep 5.6 04:50:21 31° S 04:52:55 76° E 04:58:08 10° N visible
19 Sep 7.2 06:31:34 10° WSW 06:34:16 14° WNW 06:37:00 10° NW visible
20 Sep 6.6 04:17:35 30° SE 04:19:29 42° E 04:24:22 10° NNE visible
20 Sep 6.6 05:58:06 18° WSW 06:00:22 25° WNW 06:04:36 10° NNW visible
21 Sep 7.5 03:44:45 21° ESE 03:46:10 24° E 03:50:17 10° NNE visible
21 Sep 5.9 05:25:16 36° WSW 05:26:36 43° W 05:31:34 10° N visible
22 Sep 8.1 03:11:53 13° E 03:12:59 14° ENE 03:15:29 10° NE visible
22 Sep 5.4 04:52:23 68° SW 04:52:58 77° W 04:58:12 10° N visible
23 Sep 5.9 04:19:28 60° E 04:19:28 60° E 04:24:36 10° N visible
23 Sep 6.9 05:59:58 17° W 06:00:38 18° WNW 06:04:06 10° NNW visible
24 Sep 7.0 03:46:31 33° ENE 03:46:31 33° ENE 03:50:43 10° NNE visible
24 Sep 6.3 05:27:01 30° WNW 05:27:01 30° WNW 05:31:22 10° NNW visible
25 Sep 7.8 03:13:31 19° ENE 03:13:31 19° ENE 03:16:26 10° NE visible
25 Sep 5.9 04:54:01 47° NW 04:54:01 47° NW 04:58:11 10° N visible
26 Sep 8.4 02:40:30 10° ENE 02:40:30 10° ENE 02:40:43 10° ENE visible
26 Sep 6.2 04:21:00 48° N 04:21:00 48° N 04:24:44 10° N visible
26 Sep 7.4 06:01:30 12° WNW 06:01:30 12° WNW 06:03:07 10° NW visible
27 Sep 7.1 03:47:57 32° NE 03:47:57 32° NE 03:51:01 10° NNE visible
27 Sep 7.0 05:28:27 20° NW 05:28:27 20° NW 05:31:01 10° NNW visible
28 Sep 7.8 03:14:52 20° NE 03:14:52 20° NE 03:17:00 10° NNE visible
28 Sep 6.8 04:55:22 27° NW 04:55:22 27° NW 04:58:04 10° NNW visible
